Volver al catálogo

CZ-6A DEB

ActivoPO
NORAD 61124·DEBRIS·🇨🇳 China

Lanzado Aug 6, 2024 desde Taiyuan Satellite Launch Center

Loading…

Próximos Pases (próximas 24 horas)

TLE

ActualizadoSource: Space-Track

Época: Sep 14, 2026, 07:00 UTC

1 61124U 24140PS  26257.29181476  .00001311  00000-0  15108-3 0  9999
2 61124  88.9941 256.5739 0169920 232.2014 126.3720 14.75144844110895

Sigue CZ-6A DEB en tiempo real con AllMySat

Download on the App Store